Weather in Boguchany

Russia / Krasnoyarsk Krai     58°22′47″N   97°26′42″E
temp.,
°C
wind,
m/s
gust,
m/s
humid.,
%
clouds,
%
prec.,
mm/h
press.,
hPa
HPBL,
m
9 may, sun
sun901:00+2ne119467 0.0 101110
04:00+2ne1194100 0.0 101121
07:00+4n2387100 0.0 1012360
10:00+7ne2375100 0.1 1012863
13:00+8ne3468100 0.1 10131107
16:00+8nne3572100 0.1 1014955
19:00+7n358042 0.1 1015618
22:00+5nnw249499 0.0 1017150
10 may, mon
mon1001:00+2nnw229814 0.1 101821
04:00+1nnw22965 0.0 101919
07:00+6nne36775 0.0 1020367
10:00+12ne47515 0.0 10201453
13:00+13ne4641100 0.1 10202084
16:00+14nne364165 0.0 10202084
19:00+12ne235613 0.0 102168
22:00+7ne11785 0.1 102210
11 may, tue
tue1101:00+5nne118666 0.1 102210
04:00+4e1189100 0.0 102211
07:00+7e1276100 0.0 1021267
10:00+9ese2265100 0.0 1021833
13:00+9ene4470100 0.1 1020669
16:00+10ne4462100 0.0 10191207
19:00+7ene4868100 0.0 1020723
22:00+6ene497198 0.0 1021605
12 may, wed
wed1201:00+3ne310768 0.0 1021370
04:000nne23865 0.0 102276
07:00+3ne36665 0.0 1022486
10:00+7ne45425 0.0 10211523
13:00+10ne353350 0.0 10202089
16:00+11ne3530100 0.0 10192543
19:00+10ne25387 0.0 1019350
22:00+4ne11575 0.0 102010
13 may, thu
thu1301:00+2sse00625 0.0 102110
04:00+1wsw11685 0.0 102110
07:00+6sw12515 0.0 1021205
10:00+11wsw34342 0.0 10191665
13:00+14w35285 0.0 10162418
16:00+15w462767 0.0 10142627
19:00+13wsw37366 0.0 1012488
22:00+7ssw225795 0.0 101238